Location: Beaurecueil
(43.5122°N, 5.5450°E)
Time: 13:03:28
(UTC+00:00)

Cosmos 1125 Rocket - Visible Passes

Search period start: 16 January 2021 00:00
Search period end: 26 January 2021 00:00
Orbit: 757 x 780 km, 74.0° (Epoch: 15 January)

Date Brightness Start Highest point End Pass type
(mag) Time Alt. Az. Time Alt. Az. Time Alt. Az.
17 Jan 5.5 06:05:04 10° N 06:09:32 27° ENE 06:13:59 10° ESE visible
18 Jan 6.0 05:28:50 10° NNE 05:32:20 17° NE 05:35:48 10° E visible
19 Jan 6.3 04:53:27 10° NNE 04:55:00 11° NE 04:56:33 10° ENE visible
20 Jan 4.8 05:56:08 10° N 06:01:09 41° ENE 06:06:10 10° SE visible
21 Jan 5.5 05:19:37 10° N 05:24:04 26° ENE 05:28:30 10° ESE visible
22 Jan 6.0 04:43:24 10° NNE 04:46:52 17° NE 04:50:19 10° E visible
22 Jan 3.5 06:24:15 10° NNW 06:29:33 75° WSW 06:34:50 10° SSE visible
23 Jan 6.3 04:08:03 10° NNE 04:09:31 11° NE 04:11:01 10° ENE visible
23 Jan 3.9 05:47:22 10° NNW 05:52:40 67° ENE 05:57:57 10° SSE visible
24 Jan 4.7 05:10:40 10° N 05:15:42 41° ENE 05:20:42 10° SE visible
25 Jan 5.5 04:34:10 10° N 04:38:36 26° ENE 04:43:01 10° ESE visible
25 Jan 3.9 06:15:50 10° NNW 06:20:52 45° WSW 06:25:53 10° S visible
25 Jan 5.8 19:12:13 10° S 19:12:40 12° S 19:12:40 12° S visible
